CHUANG XIN 1 (CZ-1)

导读 | 豆包AI

创新一号(CHUANG XIN 1,CZ-1/CX 1-01)是中国自主研制的首颗小型“存储转发”通信卫星,由中科院牵头,联合多家单位于1999年启动研制,2003年10月21日在太原卫星发射中心由长征四号乙运载火箭发射升空。卫星质量仅88千克,运行在高度686×759千米、倾角98.5°的太阳同步轨道,是中国国家知识创新计划的重要技术试验成果,为后续微小卫星发展奠定基础。

Basic Information
目录编号:
28058
目录名称:
CHUANG XIN 1 (CZ-1)
国际标识:
2003-049B
轨道中心:
EARTH
卫星名称:
CHUANG XIN 1 (CZ-1)
卫星全名:
--
卫星状态:
在轨 (已飞行8228 天)
发射日期:
2003-10-21 UTC
国别 :
中国 (CN)
星等 :
--
Orbit Information
数据来源 国际轨道数据 AOE轨道数据
星历时间 2026-04-30T23:39:07+0800
10小时前
查看轨道信息
2026-04-27T02:00:00+0800
4天前
查看轨道信息
半长轴 7108.491km 7108.497km
偏心率 0.0011945 0.0012218
轨道倾角 98.513° 98.513°
近地点辐角 332.438° 344.679°
升交点赤经 19.365° 15.432°
平近点角 27.618° 198.128°
近地点 721.862km 721.674km
远地点 738.846km 739.046km
周期 99.409分钟 99.409分钟
每日圈数 14.485606 14.485588
Detailed Information
使用方式:
暂无
2D Orbit Map
3D Orbit Map
Orbit Altitude Analysis Chart
Orbit Inclination Analysis Chart
Orbit Comprehensive Analysis Chart
View Comprehensive Chart